Weather History for Buckland, AK

Change the Weather History Date:

Friday, November 23, 2012

  Actual Average (PASK) Record (PASK)
Temperature  
Mean Temperature -20 °F -  
Max Temperature -16 °F 8 °F 33 °F (2002)
Min Temperature -23 °F 0 °F -23 °F (2008)
Degree Days  
Heating Degree Days 84    
Moisture  
Dew Point -27 °F    
Average Humidity 69    
Maximum Humidity 100    
Minimum Humidity 10    
Precipitation  
Precipitation 0.00 in - - ()
Sea Level Pressure  
Sea Level Pressure 30.25 in    
Wind  
Wind Speed 0 mph (SSE)    
Max Wind Speed 4 mph    
Max Gust Speed -    
Visibility 10 miles    
Events      
Averages and records for this station are not official NWS values.
T = Trace of Precipitation, MM = Missing Value Source: NWS Daily Summary

Daily Weather History Graph

Daily Weather History Graph

Search for Another Location

Airport:

Trip Planner

Search our weather history database for the weather conditions in past years. The results will help you decide how hot, cold, wet, or windy it might be!

Date:

Astronomy

Nov. 23, 2012 Rise Set
Actual Time 11:04 AM AKST 3:56 PM AKST
Civil Twilight 9:49 AM AKST 5:12 PM AKST
Nautical Twilight 8:39 AM AKST 6:21 PM AKST
Astronomical Twilight 7:37 AM AKST 7:23 PM AKST
Moon 2:55 PM AKST (11/23) 4:47 AM AKST (11/23)
Length of Visible Light 7h 23m
Length of Day
4h 52m
Waxing Gibbous, 81% of the Moon is Illuminated
Nov 23
Waxing Gibbous
Nov 28
Full
Dec 6
Last Quarter
Dec 12
New
Dec 19
First Quarter

Hourly Weather History & Observations

Time (AKST) Temp. Windchill Dew Point Humidity Pressure Visibility Wind Dir Wind Speed Gust Speed Precip Events Conditions
12:16 AM -22.0 °F - -27.4 °F 76% 30.30 in 10.0 mi Calm Calm - N/A   Clear
12:36 AM -23.8 °F - - N/A% 30.30 in 10.0 mi Calm Calm - N/A   Clear
12:56 AM -23.8 °F - - N/A% 30.30 in 10.0 mi Calm Calm - N/A   Clear
1:16 AM -23.8 °F - -29.2 °F 76% 30.30 in 10.0 mi Calm Calm - N/A   Clear
1:36 AM -22.0 °F - -27.4 °F 76% 30.29 in 10.0 mi Calm Calm - N/A   Clear
1:56 AM -22.0 °F - -29.2 °F 69% 30.29 in 10.0 mi Calm Calm - N/A   Clear
2:16 AM -22.0 °F - -27.4 °F 76% 30.28 in 10.0 mi Calm Calm - N/A   Clear
2:36 AM -20.2 °F - -29.2 °F 63% 30.28 in 10.0 mi Calm Calm - N/A   Clear
3:16 AM -20.2 °F - - N/A% 30.28 in 10.0 mi Calm Calm - N/A   Clear
3:36 AM -22.0 °F - - N/A% 30.27 in 10.0 mi Calm Calm - N/A   Clear
3:56 AM -22.0 °F - - N/A% 30.27 in 10.0 mi Calm Calm - N/A   Clear
4:16 AM -22.0 °F - -29.2 °F 69% 30.26 in 10.0 mi Calm Calm - N/A   Clear
4:36 AM -22.0 °F - - N/A% 30.26 in 10.0 mi Calm Calm - N/A   Clear
4:56 AM -22.0 °F - - N/A% 30.26 in 10.0 mi Calm Calm - N/A   Clear
5:16 AM -22.0 °F - -27.4 °F 76% 30.26 in 10.0 mi Calm Calm - N/A   Clear
5:36 AM -20.2 °F - -27.4 °F 69% 30.25 in 10.0 mi Calm Calm - N/A   Clear
5:56 AM -18.4 °F - -25.6 °F 70% 30.25 in 10.0 mi Calm Calm - N/A   Clear
6:16 AM -20.2 °F - - N/A% 30.25 in 10.0 mi Calm Calm - N/A   Clear
6:36 AM -20.2 °F - - N/A% 30.24 in 10.0 mi Calm Calm - N/A   Clear
6:56 AM -20.2 °F - -27.4 °F 69% 30.24 in 10.0 mi Calm Calm - N/A   Clear
7:16 AM -20.2 °F - -25.6 °F 76% 30.24 in 10.0 mi Calm Calm - N/A   Clear
7:36 AM -20.2 °F - - N/A% 30.24 in 10.0 mi Calm Calm - N/A   Clear
7:56 AM -20.2 °F - -27.4 °F 69% 30.24 in 10.0 mi Calm Calm - N/A   Clear
8:16 AM -20.2 °F - -25.6 °F 76% 30.24 in 10.0 mi Calm Calm - N/A   Clear
8:36 AM -20.2 °F - - N/A% 30.24 in 10.0 mi Calm Calm - N/A   Clear
8:56 AM -20.2 °F - - N/A% 30.24 in 10.0 mi Calm Calm - N/A   Clear
9:16 AM -20.2 °F - -23.8 °F 83% 30.24 in 10.0 mi Calm Calm - N/A   Clear
9:36 AM -20.2 °F - - N/A% 30.24 in 10.0 mi Calm Calm - N/A   Clear
9:56 AM -20.2 °F - -27.4 °F 69% 30.24 in 10.0 mi Calm Calm - N/A   Clear
10:16 AM -20.2 °F - -23.8 °F 83% 30.23 in 10.0 mi Calm Calm - N/A   Clear
10:36 AM -20.2 °F - - N/A% 30.23 in 10.0 mi Calm Calm - N/A   Clear
10:56 AM -20.2 °F - - N/A% 30.24 in 10.0 mi Calm Calm - N/A   Clear
11:16 AM -20.2 °F - -20.2 °F 100% 30.24 in 10.0 mi Calm Calm - N/A   Clear
11:36 AM -20.2 °F - - N/A% 30.24 in 10.0 mi Calm Calm - N/A   Clear
11:56 AM -18.4 °F -28.9 °F - N/A% 30.24 in 10.0 mi SSE 3.5 mph - N/A   Clear
12:16 PM -18.4 °F - -59.8 °F 10% 30.24 in 10.0 mi Calm Calm - N/A   Clear
12:36 PM -18.4 °F - - N/A% 30.24 in 10.0 mi Calm Calm - N/A   Clear
12:56 PM -18.4 °F - - N/A% 30.25 in 10.0 mi Calm Calm - N/A   Clear
1:16 PM -18.4 °F - - N/A% 30.24 in 10.0 mi Calm Calm - N/A   Clear
1:36 PM -16.6 °F - -20.2 °F 84% 30.24 in 10.0 mi Calm Calm - N/A   Clear
1:56 PM -16.6 °F - -25.6 °F 64% 30.24 in 10.0 mi Calm Calm - N/A   Clear
2:16 PM -16.6 °F - -23.8 °F 70% 30.24 in 10.0 mi Calm Calm - N/A   Clear
2:36 PM -16.6 °F - -23.8 °F 70% 30.24 in 10.0 mi Calm Calm - N/A   Clear
2:56 PM -16.6 °F - -23.8 °F 70% 30.24 in 10.0 mi Calm Calm - N/A   Clear
3:16 PM -18.4 °F - -23.8 °F 76% 30.24 in 8.0 mi Calm Calm - N/A   Clear
3:36 PM -18.4 °F - -23.8 °F 76% 30.24 in 10.0 mi Calm Calm - N/A   Clear
3:56 PM -18.4 °F - -25.6 °F 70% 30.24 in 10.0 mi Calm Calm - N/A   Clear
4:16 PM -18.4 °F - -23.8 °F 76% 30.24 in 10.0 mi Calm Calm - N/A   Clear
4:36 PM -18.4 °F - -23.8 °F 76% 30.24 in 10.0 mi Calm Calm - N/A   Clear
4:56 PM -18.4 °F - -27.4 °F 63% 30.24 in 10.0 mi Calm Calm - N/A   Clear
5:16 PM -18.4 °F - -25.6 °F 70% 30.24 in 10.0 mi Calm Calm - N/A   Clear
5:36 PM -18.4 °F - -23.8 °F 76% 30.23 in 10.0 mi Calm Calm - N/A   Clear
5:56 PM -18.4 °F - -27.4 °F 63% 30.23 in 10.0 mi Calm Calm - N/A   Clear
6:16 PM -18.4 °F - -27.4 °F 63% 30.24 in 10.0 mi Calm Calm - N/A   Clear
6:36 PM -18.4 °F - -23.8 °F 76% 30.24 in 10.0 mi Calm Calm - N/A   Clear
6:56 PM -18.4 °F - -27.4 °F 63% 30.23 in 10.0 mi Calm Calm - N/A   Clear
7:16 PM -18.4 °F - -25.6 °F 70% 30.24 in 10.0 mi Calm Calm - N/A   Clear
7:36 PM -18.4 °F - -25.6 °F 70% 30.25 in 10.0 mi Calm Calm - N/A   Clear
7:56 PM -18.4 °F - -29.2 °F 58% 30.24 in 10.0 mi Calm Calm - N/A   Clear
8:16 PM -18.4 °F - -27.4 °F 63% 30.25 in 10.0 mi Calm Calm - N/A   Clear
8:36 PM -18.4 °F - -27.4 °F 63% 30.25 in 10.0 mi Calm Calm - N/A   Clear
8:56 PM -18.4 °F - -25.6 °F 70% 30.25 in 10.0 mi Calm Calm - N/A   Clear
9:16 PM -18.4 °F - -27.4 °F 63% 30.25 in 10.0 mi Calm Calm - N/A   Clear
9:36 PM -16.6 °F - -23.8 °F 70% 30.25 in 10.0 mi Calm Calm - N/A   Clear
9:56 PM -16.6 °F - -25.6 °F 64% 30.25 in 10.0 mi Calm Calm - N/A   Clear
10:16 PM -16.6 °F - -25.6 °F 64% 30.25 in 10.0 mi Calm Calm - N/A   Clear
10:36 PM -16.6 °F - -23.8 °F 70% 30.26 in 10.0 mi Calm Calm - N/A   Clear
10:56 PM -16.6 °F - -27.4 °F 58% 30.26 in 10.0 mi Calm Calm - N/A   Clear
11:16 PM -16.6 °F - -25.6 °F 64% 30.26 in 10.0 mi Calm Calm - N/A   Clear
11:36 PM -16.6 °F - -23.8 °F 70% 30.26 in 10.0 mi Calm Calm - N/A   Clear
11:56 PM -16.6 °F - -27.4 °F 58% 30.26 in 10.0 mi Calm Calm - N/A   Clear